This demonstration page uses our WeatherBlox Daily Observations layout. Learn more.

Left ArrowRight Arrow

53.62937, 11.41316

Hourly Observations for April 23, 2018

Temp ( °F °C ) Dew Point ( °F °C ) Humidity (%) Winds ( mph kmh ) Pressure ( in mb ) Visibility ( mi km ) Precip ( " mm )
6:50 am 06:50 Mostly Sunny 57 14 54 12 88 88 SSW 8 13 29.77 1008 7 11 N/A
7:20 am 07:20 Mostly Sunny 59 15 54 12 82 82 SW 9 15 29.77 1008 7 11 N/A
7:50 am 07:50 Mostly Sunny 59 15 54 12 82 82 WSW 12 19 29.77 1008 7 11 N/A
8:20 am 08:20 Partly Cloudy 61 16 54 12 77 77 WSW 15 24 29.77 1008 30 48 N/A
8:50 am 08:50 Mostly Cloudy 61 16 54 12 77 77 W 15 24 29.80 1009 30 48 N/A
9:20 am 09:20 Mostly Cloudy 59 15 52 11 77 77 W 14 22 29.80 1009 30 48 N/A
9:50 am 09:50 Mostly Cloudy 59 15 52 11 77 77 W 12 19 29.80 1009 30 48 N/A
10:20 am 10:20 Mostly Cloudy 59 15 52 11 77 77 W 8 13 29.83 1010 30 48 N/A
10:50 am 10:50 Mostly Cloudy 59 15 54 12 82 82 W 10 17 29.83 1010 30 48 N/A
11:20 am 11:20 Mostly Cloudy 57 14 52 11 82 82 W 9 15 29.85 1011 5 8 N/A
11:50 am 11:50 Mostly Cloudy 57 14 54 12 88 88 W 12 19 29.85 1011 6 9 N/A
12:20 pm 12:20 Mostly Cloudy 57 14 52 11 82 82 W 7 11 29.85 1011 6 9 N/A
12:50 pm 12:50 Partly Cloudy 59 15 50 10 72 72 W 10 17 29.85 1011 30 48 N/A
1:20 pm 13:20 Partly Cloudy 59 15 50 10 72 72 W 12 19 29.85 1011 30 48 N/A
1:50 pm 13:50 Partly Cloudy 61 16 46 8 59 59 W 13 20 29.85 1011 30 48 N/A
2:20 pm 14:20 Partly Cloudy 63 17 46 8 56 56 W 14 22 29.88 1012 30 48 N/A
2:50 pm 14:50 Partly Cloudy 61 16 43 6 52 52 W 16 26 29.88 1012 30 48 N/A
3:20 pm 15:20 Partly Cloudy 63 17 45 7 52 52 W 13 20 29.88 1012 30 48 N/A
3:50 pm 15:50 Partly Cloudy 61 16 41 5 48 48 W 13 20 29.88 1012 30 48 N/A
4:20 pm 16:20 Partly Cloudy 63 17 45 7 52 52 W 14 22 29.88 1012 30 48 N/A
4:50 pm 16:50 Partly Cloudy 61 16 45 7 55 55 W 12 19 29.88 1012 30 48 N/A
5:20 pm 17:20 Partly Cloudy 61 16 45 7 55 55 W 13 20 29.88 1012 30 48 N/A
5:50 pm 17:50 Partly Cloudy 59 15 45 7 59 59 WNW 9 15 29.88 1012 30 48 N/A
6:20 pm 18:20 Partly Cloudy 59 15 45 7 59 59 W 9 15 29.88 1012 30 48 N/A
6:50 pm 18:50 Partly Cloudy 57 14 45 7 63 63 W 13 20 29.88 1012 30 48 N/A
7:20 pm 19:20 Partly Cloudy 55 13 43 6 63 63 WNW 12 19 29.91 1013 30 48 N/A
7:50 pm 19:50 Partly Cloudy 55 13 43 6 63 63 W 9 15 29.91 1013 30 48 N/A
8:20 pm 20:20 Partly Cloudy 54 12 39 4 58 58 W 9 15 29.91 1013 30 48 N/A
8:50 pm 20:50 Partly Cloudy 52 11 39 4 62 62 W 9 15 29.94 1014 30 48 N/A

Powered by AerisWeather